When you browse on this site, cookies collect data to enhance your experience and personalize the content and advertising you see.
Visit our Privacy Policy to learn more. By continuing to use the site, you agree to this use of cookies and data.
  • In Hungary
  • List of Countries
  • For 7 days
  • Water Temperature
  • Satellite Maps
  • Weather Map
  • News
  • Weather Widgets
  • user-avatar
    Login

    Hourly Weather Korec

    Today, 16 January, Wednesday

    Time Temperature Precipitation Wind Pressure Humidity
    00:00 -7°C° 0 mm 5 mps 731 mmHg 90%
    01:00 -8°C° 0 mm 4 mps 731 mmHg 91%
    02:00 -7°C° 0 mm 3 mps 730 mmHg 93%
    03:00 -5°C° 0.3 mm 2 mps 729 mmHg 95%
    04:00 -5°C° 0.3 mm 2 mps 729 mmHg 96%
    05:00 -5°C° 0.3 mm 2 mps 728 mmHg 97%
    06:00 -5°C° 0.6 mm 2 mps 728 mmHg 97%
    07:00 -5°C° 0.6 mm 2 mps 728 mmHg 97%
    08:00 -5°C° 0 mm 2 mps 729 mmHg 96%
    09:00 -5°C° 0.1 mm 3 mps 730 mmHg 95%
    10:00 -5°C° 0.1 mm 3 mps 731 mmHg 93%
    11:00 -5°C° 0.1 mm 3 mps 733 mmHg 91%
    12:00 -4°C° 0 mm 3 mps 733 mmHg 90%
    13:00 -4°C° 0 mm 4 mps 734 mmHg 88%
    14:00 -4°C° 0 mm 4 mps 735 mmHg 87%
    15:00 -5°C° 0 mm 3 mps 736 mmHg 88%
    16:00 -6°C° 0 mm 3 mps 736 mmHg 90%
    17:00 -6°C° 0 mm 2 mps 737 mmHg 92%
    18:00 -7°C° 0 mm 2 mps 737 mmHg 92%
    19:00 -7°C° 0 mm 2 mps 737 mmHg 92%
    20:00 -7°C° 0 mm 2 mps 738 mmHg 93%
    21:00 -7°C° 0 mm 2 mps 738 mmHg 93%
    22:00 -7°C° 0 mm 2 mps 738 mmHg 93%
    23:00 -8°C° 0 mm 3 mps 738 mmHg 93%

    Tomorrow, 17 January, Thursday

    Time Temperature Precipitation Wind Pressure Humidity
    00:00 -6°C° 0 mm 3 mps 738 mmHg 94%
    01:00 -4°C° 0 mm 3 mps 737 mmHg 94%
    02:00 -2°C° 0 mm 3 mps 737 mmHg 95%
    03:00 -2°C° 0 mm 4 mps 737 mmHg 96%
    04:00 -2°C° 0 mm 4 mps 737 mmHg 96%
    05:00 -1°C° 0 mm 4 mps 737 mmHg 97%
    06:00 -1°C° 0 mm 4 mps 737 mmHg 95%
    07:00 -1°C° 0 mm 5 mps 736 mmHg 93%
    08:00 -1°C° 0 mm 5 mps 736 mmHg 91%
    09:00 -1°C° 0 mm 5 mps 736 mmHg 89%
    10:00 -2°C° 0 mm 6 mps 736 mmHg 86%
    11:00 -2°C° 0 mm 6 mps 736 mmHg 83%
    12:00 -1°C° 0 mm 6 mps 735 mmHg 84%
    13:00 -1°C° 0 mm 6 mps 735 mmHg 84%
    14:00 -1°C° 0 mm 6 mps 735 mmHg 85%
    15:00 -1°C° 0 mm 6 mps 735 mmHg 85%
    16:00 0°C° 0 mm 5 mps 735 mmHg 85%
    17:00 0°C° 0 mm 5 mps 735 mmHg 85%
    18:00 -1°C° 0 mm 5 mps 735 mmHg 85%
    19:00 -1°C° 0 mm 4 mps 735 mmHg 86%
    20:00 -1°C° 0 mm 4 mps 736 mmHg 86%
    21:00 -1°C° 0 mm 4 mps 736 mmHg 86%
    22:00 -2°C° 0 mm 4 mps 736 mmHg 87%
    23:00 -1°C° 0 mm 3 mps 736 mmHg 87%

    Day after tomorrow, 18 January, Friday

    Time Temperature Precipitation Wind Pressure Humidity
    00:00 -1°C° 0 mm 3 mps 736 mmHg 88%
    01:00 -1°C° 0 mm 3 mps 736 mmHg 88%
    02:00 -1°C° 0 mm 3 mps 736 mmHg 88%
    03:00 -1°C° 0 mm 3 mps 736 mmHg 88%
    04:00 -3°C° 0 mm 4 mps 735 mmHg 89%
    05:00 -3°C° 0 mm 4 mps 735 mmHg 89%
    06:00 -2°C° 0 mm 4 mps 735 mmHg 90%
    07:00 -2°C° 0 mm 4 mps 735 mmHg 90%
    08:00 -1°C° 0 mm 4 mps 735 mmHg 91%
    09:00 -1°C° 0 mm 4 mps 736 mmHg 93%
    10:00 -1°C° 0 mm 4 mps 736 mmHg 95%
    11:00 0°C° 0 mm 4 mps 736 mmHg 97%
    12:00 0°C° 0.3 mm 4 mps 737 mmHg 96%
    13:00 -1°C° 0.3 mm 4 mps 737 mmHg 96%
    14:00 -1°C° 0.3 mm 5 mps 737 mmHg 95%
    15:00 -1°C° 0 mm 5 mps 737 mmHg 92%
    16:00 -2°C° 0 mm 5 mps 738 mmHg 88%
    17:00 -2°C° 0 mm 5 mps 738 mmHg 85%
    18:00 -4°C° 0 mm 5 mps 739 mmHg 85%
    19:00 -4°C° 0 mm 5 mps 740 mmHg 85%
    20:00 -4°C° 0 mm 5 mps 740 mmHg 85%
    21:00 -5°C° 0 mm 5 mps 741 mmHg 84%
    22:00 -6°C° 0 mm 5 mps 742 mmHg 83%
    23:00 -7°C° 0 mm 4 mps 743 mmHg 82%

    19 January, Saturday

    Time Temperature Precipitation Wind Pressure Humidity
    00:00 -7°C° 0 mm 4 mps 743 mmHg 85%
    01:00 -8°C° 0 mm 4 mps 744 mmHg 88%
    02:00 -7°C° 0 mm 3 mps 745 mmHg 90%
    03:00 -7°C° 0 mm 3 mps 745 mmHg 91%
    04:00 -8°C° 0 mm 3 mps 745 mmHg 92%
    05:00 -8°C° 0 mm 3 mps 746 mmHg 92%
    06:00 -8°C° 0 mm 3 mps 746 mmHg 93%
    07:00 -8°C° 0 mm 3 mps 746 mmHg 93%
    08:00 -8°C° 0 mm 3 mps 747 mmHg 93%
    09:00 -8°C° 0 mm 3 mps 747 mmHg 92%
    10:00 -7°C° 0 mm 3 mps 747 mmHg 91%
    11:00 -6°C° 0 mm 3 mps 748 mmHg 90%
    12:00 -5°C° 0 mm 2 mps 748 mmHg 89%
    13:00 -4°C° 0 mm 2 mps 748 mmHg 89%
    14:00 -4°C° 0 mm 2 mps 747 mmHg 88%
    15:00 -5°C° 0 mm 2 mps 747 mmHg 89%
    16:00 -5°C° 0 mm 2 mps 747 mmHg 90%
    17:00 -6°C° 0 mm 2 mps 747 mmHg 91%
    18:00 -6°C° 0 mm 2 mps 747 mmHg 91%
    19:00 -7°C° 0 mm 2 mps 747 mmHg 90%
    20:00 -7°C° 0 mm 2 mps 747 mmHg 89%
    21:00 -7°C° 0 mm 2 mps 747 mmHg 89%
    22:00 -7°C° 0 mm 2 mps 747 mmHg 88%
    23:00 -8°C° 0 mm 2 mps 747 mmHg 87%

    20 January, Sunday

    Time Temperature Precipitation Wind Pressure Humidity
    00:00 -8°C° 0 mm 2 mps 747 mmHg 87%
    01:00 -8°C° 0 mm 2 mps 747 mmHg 86%
    02:00 -8°C° 0 mm 2 mps 747 mmHg 85%
    03:00 -8°C° 0 mm 2 mps 746 mmHg 85%
    04:00 -8°C° 0 mm 2 mps 746 mmHg 85%
    05:00 -8°C° 0 mm 2 mps 745 mmHg 84%
    06:00 -8°C° 0 mm 2 mps 745 mmHg 85%
    07:00 -7°C° 0 mm 2 mps 745 mmHg 86%
    08:00 -8°C° 0 mm 3 mps 745 mmHg 87%
    09:00 -8°C° 0.3 mm 3 mps 745 mmHg 89%
    10:00 -7°C° 0.3 mm 3 mps 744 mmHg 92%
    11:00 -7°C° 0.3 mm 3 mps 744 mmHg 94%
    12:00 -7°C° 0.6 mm 3 mps 744 mmHg 94%
    13:00 -7°C° 0.6 mm 3 mps 743 mmHg 94%
    14:00 -6°C° 0.6 mm 3 mps 743 mmHg 93%
    15:00 -6°C° 0.3 mm 2 mps 743 mmHg 94%
    16:00 -6°C° 0.3 mm 2 mps 742 mmHg 95%
    17:00 -4°C° 0.3 mm 1 mps 742 mmHg 96%
    18:00 -4°C° 0.1 mm 1 mps 742 mmHg 96%
    19:00 -6°C° 0.1 mm 1 mps 742 mmHg 96%
    20:00 -6°C° 0.1 mm 1 mps 742 mmHg 96%
    21:00 -6°C° 0 mm 1 mps 742 mmHg 97%
    22:00 -7°C° 0 mm 2 mps 742 mmHg 97%
    23:00 -8°C° 0 mm 2 mps 743 mmHg 97%

    21 January, Monday

    Time Temperature Precipitation Wind Pressure Humidity
    00:00 -7°C° 0 mm 2 mps 743 mmHg 97%
    01:00 -7°C° 0 mm 2 mps 743 mmHg 96%
    02:00 -7°C° 0 mm 2 mps 743 mmHg 96%
    03:00 -8°C° 0 mm 2 mps 743 mmHg 96%
    04:00 -8°C° 0 mm 2 mps 743 mmHg 97%
    05:00 -9°C° 0 mm 2 mps 743 mmHg 97%
    06:00 -9°C° 0 mm 2 mps 743 mmHg 96%
    07:00 -10°C° 0 mm 3 mps 743 mmHg 94%
    08:00 -10°C° 0 mm 3 mps 743 mmHg 93%
    09:00 -10°C° 0 mm 4 mps 743 mmHg 93%
    10:00 -9°C° 0 mm 4 mps 743 mmHg 92%
    11:00 -8°C° 0 mm 5 mps 743 mmHg 91%
    12:00 -8°C° 0.1 mm 6 mps 743 mmHg 88%
    13:00 -8°C° 0.1 mm 6 mps 743 mmHg 85%
    14:00 -6°C° 0.1 mm 6 mps 743 mmHg 82%
    15:00 -6°C° 0.1 mm 6 mps 744 mmHg 82%
    16:00 -8°C° 0.1 mm 6 mps 744 mmHg 82%
    17:00 -8°C° 0.1 mm 6 mps 745 mmHg 82%
    18:00 -9°C° 0 mm 6 mps 746 mmHg 83%
    19:00 -10°C° 0 mm 5 mps 746 mmHg 84%
    20:00 -11°C° 0 mm 5 mps 747 mmHg 86%
    21:00 -11°C° 0 mm 4 mps 747 mmHg 88%
    22:00 -11°C° 0 mm 4 mps 748 mmHg 90%
    23:00 -12°C° 0 mm 3 mps 748 mmHg 93%
    Show more